Dewpoint
18 17 16 14 12 19 28 27 26 19 17 16 10 6 4 2 3 -4 12 15 14 12 11 10 11 9 10 12 15 15 20 21 21 24 29 29 30 28 29 33 37 47 47 46 48 46 45 49 56 59 60 62 64 64 64 62 61 62 61 63 62 62 61 60 57 55 53 52 51 51 52 51 51 53 55 55 56 55 55 56 54 55 56 57 57 56
22 16 18 18 27 28 29 28 26 23 23 14 11 8 4 3 7 3 9 15 14 21 10 12 5 12 16 18 19 19 21 19 22 23 28 28 26 27 28 31 35 51 46 46 49 51 48 51 58 59 60 62 62 62 63 62 61 62 62 62 62 62 60 58 57 55 54 53 50 50 49 49 46 46 48 50 54 54 55 54 54 55 54 55 57 56
17 14 18 25 27 27 28 28 25 24 24 19 11 8 7 3 0 13 16 17 13 19 13 9 11 16 18 14 17 21 22 21 21 24 26 27 25 25 25 31 37 41 52 46 48 50 51 52 58 58 60 61 61 62 62 62 62 62 62 62 62 61 57 57 58 55 53 53 54 52 49 48 49 53 55 51 51 52 50 54 53 53 55 55 55 56
19 9 23 20 26 25 25 23 25 27 26 19 14 9 9 5 5 9 21 19 18 18 14 13 13 18 21 20 22 24 21 23 24 24 28 28 27 26 26 27 32 37 43 50 48 52 48 50 57 57 59 61 60 60 61 61 61 61 60 62 62 60 58 57 58 55 56 56 56 56 54 54 52 51 52 53 53 52 53 53 56 55 58 56 55 54
5 18 19 24 23 25 27 26 26 23 17 21 21 11 5 5 4 7 18 24 29 28 27 17 20 18 17 14 15 21 22 22 20 20 25 27 24 29 31 30 33 36 41 46 49 54 53 53 56 56 58 59 60 60 59 61 61 60 60 61 62 59 58 57 56 57 57 57 57 56 57 55 52 50 49 50 51 52 53 55 56 56 56 55 53 54
3 20 23 15 16 20 24 25 23 25 15 16 23 21 17 18 17 15 21 23 22 21 26 16 12 13 14 12 12 18 22 21 23 24 23 27 29 28 30 34 37 41 40 42 47 51 54 55 56 57 57 58 58 59 60 62 60 60 59 61 61 59 57 56 57 59 56 53 52 51 49 46 47 48 49 49 49 50 52 49 56 55 54 54 55 55
15 22 18 19 21 21 18 19 22 24 15 16 18 21 18 13 21 21 20 21 15 10 20 27 18 12 11 11 16 19 23 23 23 21 18 17 18 16 19 22 26 34 39 42 45 45 53 54 55 57 57 57 57 58 61 62 61 60 59 62 60 58 57 56 57 59 53 52 51 50 48 46 48 47 50 52 53 52 49 54 55 54 57 55 55 56
11 17 16 20 24 21 20 16 21 21 15 11 25 17 15 12 16 22 21 18 16 18 27 23 16 18 12 16 18 21 23 21 22 23 23 18 22 20 21 19 26 25 33 38 41 43 48 53 55 56 57 57 57 58 60 62 61 61 58 62 60 58 56 57 57 57 53 52 52 51 49 48 47 48 52 53 53 54 53 53 54 54 55 55 55 55
23 23 21 20 20 16 14 15 19 22 18 15 26 19 14 14 21 20 18 19 17 17 14 16 17 16 13 14 14 21 20 19 19 25 25 23 22 25 28 26 27 32 35 37 39 43 44 50 54 56 56 58 58 58 59 60 61 60 59 61 60 57 57 57 57 56 53 53 52 51 50 47 48 51 50 51 51 51 54 54 54 54 53 55 55 52
16 16 13 15 15 14 13 10 18 23 20 22 19 19 17 16 17 20 19 16 20 18 16 17 18 13 12 14 10 18 18 19 19 22 25 27 27 25 29 33 34 30 32 32 33 37 43 47 50 56 56 56 57 58 59 60 60 59 59 61 59 57 57 58 58 56 54 54 53 50 50 49 49 49 47 49 50 52 53 54 55 54 53 52 52 53
16 18 19 10 9 8 8 18 15 14 16 21 21 15 14 14 19 20 22 18 20 13 14 19 18 14 11 12 9 19 26 20 17 20 24 26 27 25 34 29 29 26 29 29 31 35 39 42 48 51 55 56 57 59 59 60 59 59 59 60 58 57 56 58 56 56 55 54 53 50 51 50 51 50 49 50 51 50 54 53 53 52 52 51 51 51
8 9 8 8 9 8 8 12 14 15 15 18 17 15 16 19 21 21 21 21 17 11 14 10 16 21 12 10 9 19 24 23 24 24 26 25 24 28 32 29 29 31 33 32 33 36 40 40 44 50 53 56 56 57 58 59 59 58 58 59 58 58 57 57 56 56 55 53 54 52 52 51 51 51 49 52 50 50 53 53 52 52 51 51 51 51
14 7 7 8 16 8 8 5 6 12 14 15 17 16 18 14 20 17 18 16 13 13 18 14 16 16 13 14 17 19 18 16 20 16 22 24 25 32 28 33 33 32 33 35 37 39 40 42 44 49 54 56 57 56 57 58 59 58 58 58 56 57 56 57 57 55 55 55 54 52 51 52 52 51 50 52 51 51 50 51 51 51 51 50 50 50
12 7 6 6 9 12 7 4 5 11 12 13 15 22 16 14 14 14 13 14 13 16 16 17 17 12 10 14 20 20 22 17 19 26 27 29 34 35 30 32 32 36 34 38 40 41 45 45 44 49 53 55 56 57 57 57 58 58 58 58 55 57 56 57 56 53 55 55 55 54 52 51 51 51 51 51 51 51 50 50 51 50 50 51 51 50
7 5 5 7 13 9 8 5 5 14 14 12 13 12 18 18 18 14 11 11 7 10 20 16 17 14 11 14 20 24 21 18 19 18 30 32 33 37 33 33 35 37 40 41 46 46 48 51 52 53 54 54 55 57 56 57 57 57 57 57 54 56 56 57 56 54 54 53 55 54 53 51 52 51 49 48 50 51 50 51 51 50 50 50 52 49
4 7 7 9 11 10 6 6 7 6 8 11 12 13 18 17 17 12 14 15 16 14 14 19 19 14 16 27 23 21 17 18 19 23 29 30 31 35 35 37 37 40 41 43 48 50 50 52 53 53 54 53 53 54 55 56 57 57 56 56 54 55 56 56 56 54 53 54 55 55 55 55 53 51 50 48 48 51 51 52 51 50 51 51 52 52
5 6 9 9 9 7 4 10 10 8 11 15 5 14 13 13 11 14 18 23 25 15 11 13 19 16 24 17 21 19 17 19 19 21 24 29 32 37 36 36 38 41 41 44 47 49 51 51 52 52 53 53 54 54 55 56 56 56 56 56 56 56 55 55 56 55 54 54 55 56 55 55 55 54 52 50 50 53 52 52 52 50 51 53 53 53
16 10 8 9 7 6 8 9 8 10 7 5 12 10 9 9 15 20 14 18 15 11 13 14 15 9 11 14 17 17 16 17 17 18 21 33 33 33 36 39 39 40 43 45 47 50 50 49 50 51 52 53 54 53 55 55 56 57 56 55 54 51 54 55 56 55 55 54 54 55 55 56 56 55 55 53 51 52 53 52 51 51 51 51 53 53
19 14 5 3 5 11 13 10 7 7 9 7 7 5 12 13 12 20 15 13 13 13 10 11 9 9 7 15 16 17 17 19 18 19 24 26 29 33 35 38 40 41 43 44 46 47 49 49 50 52 52 51 52 53 53 52 54 54 55 53 55 55 55 55 55 55 55 55 55 55 56 57 56 56 55 54 54 54 54 53 50 50 51 52 53 53
24 16 9 5 6 7 10 8 7 7 5 8 8 6 6 13 15 11 14 15 17 13 14 14 9 10 12 15 19 19 20 20 19 20 23 25 30 34 35 37 39 42 43 41 44 46 48 49 49 50 51 50 53 52 53 52 51 53 54 54 53 54 54 54 54 55 55 54 55 56 56 56 54 53 53 54 55 54 54 52 51 50 51 53 52 53
19 24 14 9 9 11 10 11 7 4 9 10 11 11 9 19 16 11 19 10 12 12 11 11 10 13 25 23 19 19 22 23 22 23 25 29 33 35 37 39 41 42 43 42 43 44 47 50 50 50 51 51 52 53 53 53 52 52 51 51 51 53 52 53 52 52 53 55 54 55 55 54 54 55 53 53 54 56 56 55 53 48 51 51 53 53
17 16 15 15 9 9 12 12 13 14 14 15 17 18 13 16 11 10 11 12 14 10 11 9 11 16 30 25 23 19 24 23 19 21 27 28 32 39 40 40 40 41 42 43 42 42 43 45 46 47 47 48 50 50 51 52 54 53 53 50 52 51 52 51 51 52 52 54 54 54 53 53 56 56 56 55 55 56 56 56 55 53 51 52 53 52
28 25 20 15 13 8 3 9 16 14 14 13 12 12 11 17 17 14 13 15 16 12 12 12 13 15 30 27 21 24 25 21 23 24 27 30 35 37 39 39 41 41 40 40 40 39 39 41 42 42 44 46 49 49 49 49 49 51 52 53 53 53 53 54 53 53 54 54 54 54 53 53 53 53 54 55 54 56 55 56 59 58 55 50 51 52
26 24 13 5 1 -1 -0 -1 6 12 11 11 14 16 14 16 15 15 14 17 18 19 16 14 14 21 32 30 29 28 26 24 25 26 29 32 33 34 35 37 37 39 40 40 39 38 37 37 38 36 38 39 41 43 44 47 48 48 48 48 50 53 53 54 54 55 55 54 56 55 54 54 55 55 54 53 52 53 56 57 56 56 57 54 51 51
22 22 15 8 7 6 6 5 4 4 10 13 11 14 10 10 14 18 20 23 19 19 16 13 12 14 31 32 27 26 25 24 24 26 30 31 35 35 35 36 37 38 38 38 38 37 37 36 34 32 32 33 35 37 41 40 40 41 43 45 45 47 49 52 54 55 55 58 56 56 55 55 55 55 58 59 58 59 59 56 54 55 53 55 53 53
21 22 17 12 12 12 9 3 5 6 11 16 18 14 9 6 22 23 17 17 17 20 17 13 10 22 29 26 24 24 24 24 26 27 29 32 33 32 33 36 37 37 38 38 40 39 38 35 32 34 35 30 32 32 35 38 38 39 39 41 43 41 44 44 45 47 50 52 54 56 55 56 57 56 57 58 58 59 59 58 58 55 56 53 52 52
21 24 21 18 13 10 12 7 15 10 15 11 13 14 15 15 17 22 21 16 14 18 16 19 20 21 23 23 22 24 25 23 26 29 28 28 31 33 36 36 36 37 36 37 39 38 39 39 39 36 36 34 35 34 34 33 34 36 40 41 39 40 41 43 44 44 44 44 44 46 48 51 54 56 56 57 59 60 59 59 60 55 55 54 53 54
23 21 20 23 21 15 12 12 11 12 11 10 10 14 14 16 20 22 17 17 22 16 11 18 21 19 19 20 22 26 26 25 27 28 27 28 31 33 36 35 38 33 35 36 37 37 38 39 40 40 39 37 34 33 33 34 35 37 39 38 38 39 42 41 43 41 41 44 47 48 46 46 46 46 48 52 55 58 59 58 58 58 59 58 57 55
23 18 22 23 18 14 14 14 13 10 8 10 11 14 18 18 20 19 22 20 24 19 16 21 24 22 19 20 21 22 26 28 25 28 29 30 32 34 34 33 30 30 31 31 35 37 37 38 40 39 37 35 36 35 35 34 36 39 38 37 37 39 39 41 41 40 40 42 42 43 44 47 46 48 47 47 48 49 51 55 59 59 58 58 57 56
26 20 22 15 14 12 10 8 9 9 10 9 12 14 14 19 20 21 22 22 22 22 21 22 24 24 23 23 19 22 23 25 27 28 29 27 29 30 28 29 27 28 30 31 33 34 37 37 38 38 38 38 35 33 31 32 32 34 36 36 36 37 35 38 38 37 37 35 38 40 40 42 44 45 46 47 48 49 50 49 50 53 56 57 57 56
25 18 27 22 17 13 13 12 11 13 14 15 12 11 13 15 15 18 21 22 23 21 24 24 26 27 24 25 25 25 24 19 23 24 24 27 27 30 30 28 27 27 27 28 32 33 35 36 36 36 36 37 36 36 35 33 30 31 34 34 32 34 33 31 35 34 34 33 34 35 35 35 37 40 41 43 45 48 48 47 49 50 51 53 54 55
27 22 22 20 16 17 13 12 11 10 10 11 14 17 17 18 20 20 19 22 23 21 22 24 24 23 24 24 23 22 22 20 21 23 24 24 26 31 31 29 27 29 29 28 31 32 33 33 35 36 36 36 34 34 33 33 29 31 31 34 31 29 30 36 36 35 35 34 32 32 30 33 33 33 35 37 38 41 44 47 49 49 49 51 53 54
25 20 17 16 15 17 13 13 11 14 15 12 18 19 18 16 13 16 14 18 23 23 20 19 20 23 24 25 25 26 25 23 22 22 25 24 25 27 29 29 28 30 29 28 29 31 31 31 34 37 37 33 33 30 31 29 30 35 35 35 36 33 36 33 33 32 35 35 33 31 33 30 30 31 33 34 35 38 43 45 47 49 49 49 50 52
23 24 19 20 16 17 15 16 18 15 11 13 25 27 25 23 20 20 19 21 23 25 22 23 22 24 26 28 28 26 27 28 30 30 29 29 29 32 30 30 28 29 29 29 29 29 32 33 35 36 38 36 36 35 36 35 33 35 38 35 33 34 33 31 33 34 34 34 33 32 32 32 31 33 34 35 36 37 37 41 44 47 49 49 49 51
24 22 19 20 17 15 18 18 13 12 12 19 24 21 24 24 22 20 21 20 22 23 28 26 26 26 27 27 30 31 30 29 31 31 30 28 30 33 33 31 28 28 30 31 31 31 36 37 37 38 37 36 35 36 37 32 34 36 31 34 33 34 35 33 31 34 35 35 34 35 35 34 33 35 35 35 36 37 36 37 41 45 47 48 48 48
21 19 19 18 15 14 13 12 11 11 19 24 24 24 26 22 19 22 22 22 25 25 27 24 23 25 27 27 27 30 30 29 28 26 25 26 30 31 31 31 29 28 29 30 32 36 37 35 35 36 37 37 33 29 28 30 33 33 34 33 34 34 33 33 32 32 33 33 32 33 34 37 37 37 35 35 35 36 37 39 41 44 47 47 47 48
21 19 18 15 19 13 13 12 12 18 18 19 21 23 22 23 24 25 20 22 29 29 28 27 26 25 24 25 27 28 30 29 27 27 28 27 30 30 31 32 32 32 32 33 33 34 36 36 33 34 36 36 34 32 33 33 33 34 34 33 33 32 32 33 32 31 33 34 33 33 35 36 37 38 38 37 35 35 37 38 39 42 45 46 47 47
17 20 20 16 17 15 12 11 12 13 13 16 29 30 31 32 32 30 28 23 27 27 25 25 24 24 23 25 26 27 29 26 26 26 26 25 26 29 27 28 29 31 29 30 29 29 31 32 32 31 32 33 32 32 30 31 34 34 34 34 33 31 32 31 31 31 31 32 31 33 35 37 36 36 36 36 36 36 37 39 39 40 44 45 45 45
15 17 19 16 15 15 15 13 12 12 15 25 27 28 29 28 32 30 22 13 25 26 25 25 23 24 25 25 26 27 27 24 24 34 27 26 26 25 25 24 23 25 26 26 26 27 27 31 32 29 28 30 30 31 34 33 34 31 32 33 33 34 34 34 32 33 32 33 31 31 34 36 38 38 38 37 38 39 38 39 40 40 44 45 45 45
20 16 16 15 17 16 16 14 13 16 16 28 28 26 27 26 29 23 15 12 29 27 25 25 24 25 26 28 28 27 25 22 26 30 29 30 28 28 26 25 26 26 24 26 27 28 29 31 29 29 30 31 32 33 32 32 31 32 32 32 32 33 32 34 34 32 33 32 33 34 35 38 39 40 40 40 42 43 42 41 41 42 44 45 43 43
16 17 17 16 15 16 18 14 14 16 24 28 25 26 24 30 27 17 12 14 26 26 25 26 25 26 26 26 27 25 26 26 26 27 28 28 27 27 27 29 27 25 23 23 24 30 25 25 26 25 29 29 29 30 30 30 31 32 32 33 33 34 34 35 34 34 33 32 32 32 32 33 37 39 40 41 43 43 43 44 44 44 44 45 44 45
19 21 20 21 17 14 15 12 13 15 31 30 26 27 25 25 14 11 22 27 27 25 25 24 25 25 26 25 24 23 25 26 26 25 25 25 26 27 25 25 25 24 24 26 28 27 26 24 28 27 27 27 28 30 32 32 32 33 32 33 33 35 35 34 33 34 33 32 31 32 33 34 37 40 43 43 43 44 45 46 46 45 45 44 45 46
18 18 15 14 17 16 15 13 11 11 25 26 26 22 24 19 17 21 23 24 24 24 23 24 24 24 24 24 25 26 24 23 25 25 26 26 27 27 27 25 27 25 26 27 26 23 22 22 22 22 26 25 27 27 27 29 31 32 34 34 35 34 33 33 34 34 34 33 33 34 35 37 39 41 43 44 45 44 45 45 45 45 45 46 46 46
19 16 14 14 16 11 12 12 12 21 23 25 24 18 25 23 22 23 23 21 22 22 22 22 23 23 25 24 26 25 27 27 27 28 28 27 27 26 26 27 27 25 25 23 22 22 22 21 21 23 23 23 25 27 28 29 29 30 31 33 32 32 32 32 33 33 33 34 34 36 36 36 38 39 41 42 43 44 44 44 45 44 43 46 46 45
14 14 19 14 21 18 15 15 21 20 20 20 23 22 22 23 22 22 22 21 20 20 22 19 21 22 23 23 24 24 23 25 25 25 26 26 26 26 25 25 25 25 25 25 22 22 22 21 24 23 24 24 26 26 28 30 31 31 32 33 33 31 32 33 34 35 35 36 36 36 36 39 39 40 40 41 42 42 41 44 46 45 47 47 46 44
17 18 21 17 18 19 18 18 20 16 16 18 18 20 19 20 19 20 20 18 19 19 19 19 20 21 21 21 20 19 20 21 22 22 23 22 22 22 24 22 22 24 24 23 23 22 19 21 25 25 25 26 26 26 28 28 28 31 33 34 34 32 32 33 34 34 35 35 34 35 35 37 38 38 38 39 40 42 44 45 47 47 46 46 45 45
19 19 17 15 18 15 13 14 14 16 18 19 16 16 17 18 17 18 18 18 17 19 19 21 21 21 21 20 19 20 19 18 19 20 21 20 20 20 20 21 23 24 24 23 23 24 23 25 26 27 27 28 29 29 30 31 31 31 32 33 34 34 35 34 34 34 34 36 35 36 35 37 36 36 37 41 43 44 46 48 47 46 44 45 44 42
16 19 15 15 15 14 15 15 16 16 16 16 14 14 15 16 16 17 18 20 21 23 23 22 22 21 21 21 21 21 22 21 19 18 17 17 19 17 17 19 20 22 23 24 25 25 25 26 27 29 29 30 31 31 30 30 30 31 33 34 34 33 34 34 34 33 32 33 34 35 36 37 36 39 41 43 45 46 46 46 46 45 44 43 41 40
15 18 12 14 12 12 12 12 11 14 15 14 14 15 16 17 19 22 22 22 22 22 23 23 24 25 25 25 26 25 25 26 25 24 21 19 18 19 18 20 21 23 25 24 25 28 28 29 28 31 30 31 31 32 31 30 29 31 34 34 33 33 33 32 31 31 32 35 35 36 37 39 40 42 42 45 44 46 45 45 45 44 43 44 42 39
13 11 11 13 12 12 11 12 14 12 13 15 17 19 19 22 24 25 24 23 23 24 27 28 29 29 29 31 28 29 28 29 29 28 24 23 22 23 23 23 24 27 26 28 29 29 30 31 31 32 31 32 33 32 31 32 32 31 30 30 32 33 33 33 33 34 37 37 36 37 38 41 41 44 44 45 42 40 37 33 35 41 37 34 33 33
13 15 12 10 11 11 14 14 18 18 19 20 20 22 26 26 26 26 26 27 28 28 29 29 28 28 29 29 29 29 29 28 29 30 30 33 27 28 29 28 28 28 29 30 31 31 32 33 34 34 33 33 34 33 33 34 33 34 34 34 35 36 37 37 38 38 38 37 38 37 40 42 43 44 46 43 41 39 37 35 35 33 33 34 33 33